Starlink 5148

operational
NORAD ID: 53978 Int'l Des: 2022-125 Owner: SPXS Country: US Constellation: starlink
LEOCIRCULAR

About Starlink 5148

Description loading...

Live Position

Loading 3D Globe...

Upcoming Passes

Altitude History

Altitude vs Time

uPlot chart will show altitude changes over time

Two-Line Element Set

1 53978U 22125Q 25257.35968770 -.00000162 00000-0 79179-5 0 9998
2 53978 53.2171 290.6138 0001202 86.8282 273.2848 15.08836949162771
Epoch: Sep 14, 2025 • Age: 27 hours

Current Status

Altitude 543.3 km
Velocity 7.60 km/s
Sub-Earth Point 43.18°N, 156.32°E
Launch Date Oct 5, 2022
Age 2.9 years
Type internet

Technical Details

Classification Payload
Mass 305.00 kg
Dry Mass 290.00 kg
Total Mass 305.00 kg
Length 0.20 m
Diameter 2.80 m
Span 9.00 m
Shape Box + pan
Manufacturer SPXS
Bus Type Starlink
Phase Status In Orbit
Owner/State SPXS/US

Large Constellations

Loading constellations...